Time,TemperatureF,DewpointF,PressureIn,WindDirection,WindDirectionDegrees,WindSpeedMPH,WindSpeedGustMPH,Humidity,HourlyPrecipIn,Conditions,Clouds,dailyrainin,SoftwareType,DateUTC
2013-02-18 00:02:00,31.0,24.0,-100.00,SE,140,11.0,16.0,74,0.00,,,-99.99,,2013-02-18 06:02:00,
2013-02-18 00:11:00,31.0,24.0,-100.00,SE,140,10.0,16.0,74,0.00,,,-99.99,,2013-02-18 06:11:00,
2013-02-18 00:21:00,31.0,24.0,-100.00,SE,140,12.0,17.0,74,0.00,,,-99.99,,2013-02-18 06:21:00,
2013-02-18 00:32:00,31.0,24.0,-100.00,SE,140,9.0,17.0,74,0.00,,,-99.99,,2013-02-18 06:32:00,
2013-02-18 00:41:00,31.0,24.0,-100.00,SE,140,9.0,19.0,74,0.00,,,-99.99,,2013-02-18 06:41:00,
2013-02-18 00:51:00,32.0,25.0,-100.00,SSE,150,11.0,17.0,74,0.00,,,-99.99,,2013-02-18 06:51:00,
2013-02-18 01:01:00,32.0,25.0,-100.00,SE,140,10.0,18.0,74,0.00,,,-99.99,,2013-02-18 07:01:00,
2013-02-18 01:11:00,32.0,25.0,-100.00,SE,140,13.0,19.0,75,0.00,,,-99.99,,2013-02-18 07:11:00,
2013-02-18 01:21:00,32.0,25.0,-100.00,SE,140,12.0,19.0,75,0.00,,,-99.99,,2013-02-18 07:21:00,
2013-02-18 01:32:00,32.0,26.0,-100.00,SE,135,12.0,17.0,76,0.00,,,-99.99,,2013-02-18 07:32:00,
2013-02-18 01:42:00,32.0,26.0,-100.00,SE,135,12.0,17.0,76,0.00,,,-99.99,,2013-02-18 07:42:00,
2013-02-18 01:51:00,32.0,26.0,-100.00,SE,140,12.0,17.0,76,0.00,,,-99.99,,2013-02-18 07:51:00,
2013-02-18 02:01:00,32.0,26.0,-100.00,SE,145,12.0,17.0,77,0.00,,,-99.99,,2013-02-18 08:01:00,
2013-02-18 02:11:00,32.0,26.0,-100.00,SE,135,12.0,18.0,77,0.00,,,-99.99,,2013-02-18 08:11:00,
2013-02-18 02:21:00,32.0,26.0,-100.00,SE,130,13.0,19.0,77,0.00,,,-99.99,,2013-02-18 08:21:00,
2013-02-18 02:32:00,32.0,26.0,-100.00,SE,145,13.0,18.0,78,0.00,,,-99.99,,2013-02-18 08:32:00,
2013-02-18 02:42:00,33.0,26.0,-100.00,SE,140,11.0,18.0,78,0.00,,,-99.99,,2013-02-18 08:42:00,
2013-02-18 02:52:00,33.0,27.0,-100.00,SE,135,10.0,16.0,78,0.00,,,-99.99,,2013-02-18 08:52:00,
2013-02-18 03:02:00,33.0,27.0,-100.00,SE,135,10.0,16.0,78,0.00,,,-99.99,,2013-02-18 09:02:00,
2013-02-18 03:11:00,33.0,27.0,-100.00,SE,145,11.0,19.0,78,0.00,,,-99.99,,2013-02-18 09:11:00,
2013-02-18 03:22:00,33.0,27.0,-100.00,SSE,150,9.0,15.0,79,0.00,,,-99.99,,2013-02-18 09:22:00,
2013-02-18 03:32:00,33.0,27.0,-100.00,SE,145,11.0,16.0,80,0.00,,,-99.99,,2013-02-18 09:32:00,
2013-02-18 03:41:00,33.0,27.0,-100.00,SE,145,11.0,16.0,80,0.00,,,-99.99,,2013-02-18 09:41:00,
2013-02-18 03:51:00,33.0,27.0,-100.00,SE,145,9.0,16.0,80,0.00,,,-99.99,,2013-02-18 09:51:00,
2013-02-18 04:01:00,32.0,27.0,-100.00,ESE,120,8.0,15.0,80,0.00,,,-99.99,,2013-02-18 10:01:00,
2013-02-18 04:11:00,32.0,27.0,-100.00,SE,130,7.0,12.0,80,0.00,,,-99.99,,2013-02-18 10:11:00,
2013-02-18 04:21:00,32.0,27.0,-100.00,SE,135,7.0,13.0,81,0.00,,,-99.99,,2013-02-18 10:21:00,
2013-02-18 04:31:00,32.0,27.0,-100.00,SE,130,9.0,12.0,82,0.00,,,-99.99,,2013-02-18 10:31:00,
2013-02-18 04:42:00,32.0,27.0,-100.00,SE,140,8.0,13.0,82,0.00,,,-99.99,,2013-02-18 10:42:00,
2013-02-18 04:52:00,32.0,27.0,-100.00,SE,125,9.0,12.0,83,0.00,,,-99.99,,2013-02-18 10:52:00,
2013-02-18 05:01:00,32.0,27.0,-100.00,SE,125,9.0,12.0,83,0.00,,,-99.99,,2013-02-18 11:01:00,
2013-02-18 05:11:00,32.0,27.0,-100.00,SE,125,7.0,12.0,84,0.00,,,-99.99,,2013-02-18 11:11:00,
2013-02-18 05:22:00,32.0,28.0,-100.00,SE,125,7.0,13.0,85,0.00,,,-99.99,,2013-02-18 11:22:00,
2013-02-18 05:32:00,32.0,28.0,-100.00,SE,125,7.0,12.0,86,0.00,,,-99.99,,2013-02-18 11:32:00,
2013-02-18 05:42:00,32.0,28.0,-100.00,SE,130,7.0,12.0,86,0.00,,,-99.99,,2013-02-18 11:42:00,
2013-02-18 05:52:00,31.0,28.0,-100.00,ESE,120,6.0,11.0,87,0.00,,,-99.99,,2013-02-18 11:52:00,
2013-02-18 06:02:00,31.0,28.0,-100.00,ESE,115,7.0,11.0,87,0.00,,,-99.99,,2013-02-18 12:02:00,
2013-02-18 06:11:00,31.0,28.0,-100.00,ESE,115,7.0,13.0,87,0.00,,,-99.99,,2013-02-18 12:11:00,
2013-02-18 06:22:00,32.0,29.0,-100.00,SE,130,7.0,12.0,87,0.00,,,-99.99,,2013-02-18 12:22:00,
2013-02-18 06:32:00,32.0,29.0,-100.00,SE,135,8.0,12.0,88,0.00,,,-99.99,,2013-02-18 12:32:00,
2013-02-18 06:42:00,32.0,29.0,-100.00,ESE,120,6.0,11.0,88,0.00,,,-99.99,,2013-02-18 12:42:00,
2013-02-18 06:52:00,32.0,29.0,-100.00,SE,130,6.0,9.0,88,0.00,,,-99.99,,2013-02-18 12:52:00,
2013-02-18 07:02:00,31.0,29.0,-100.00,ESE,120,6.0,9.0,89,0.00,,,-99.99,,2013-02-18 13:02:00,
2013-02-18 07:12:00,31.0,29.0,-100.00,SE,130,7.0,10.0,89,0.00,,,-99.99,,2013-02-18 13:12:00,
2013-02-18 07:22:00,32.0,29.0,-100.00,SE,125,7.0,11.0,89,0.00,,,-99.99,,2013-02-18 13:22:00,
2013-02-18 07:32:00,32.0,29.0,-100.00,SE,125,7.0,11.0,89,0.00,,,-99.99,,2013-02-18 13:32:00,
2013-02-18 07:42:00,33.0,30.0,-100.00,SE,130,7.0,12.0,89,0.00,,,-99.99,,2013-02-18 13:42:00,
2013-02-18 07:52:00,33.0,30.0,-100.00,SE,140,7.0,12.0,89,0.00,,,-99.99,,2013-02-18 13:52:00,
2013-02-18 08:02:00,33.0,30.0,-100.00,SE,130,7.0,12.0,89,0.00,,,-99.99,,2013-02-18 14:02:00,
2013-02-18 08:11:00,34.0,31.0,-100.00,SE,130,6.0,11.0,89,0.00,,,-99.99,,2013-02-18 14:11:00,
2013-02-18 08:22:00,35.0,32.0,-100.00,SE,130,6.0,9.0,89,0.00,,,-99.99,,2013-02-18 14:22:00,
2013-02-18 08:33:00,36.0,33.0,-100.00,SE,140,7.0,11.0,87,0.00,,,-99.99,,2013-02-18 14:33:00,
2013-02-18 08:42:00,36.0,33.0,-100.00,SE,145,6.0,11.0,87,0.00,,,-99.99,,2013-02-18 14:42:00,
2013-02-18 08:53:00,37.0,33.0,-100.00,SSE,165,6.0,9.0,86,0.00,,,-99.99,,2013-02-18 14:53:00,
2013-02-18 09:02:00,38.0,34.0,-100.00,ESE,115,4.0,7.0,84,0.00,,,-99.99,,2013-02-18 15:02:00,
2013-02-18 09:11:00,40.0,35.0,-100.00,SSE,160,6.0,10.0,82,0.00,,,-99.99,,2013-02-18 15:11:00,
2013-02-18 09:22:00,41.0,35.0,-100.00,SSE,160,10.0,14.0,78,0.00,,,-99.99,,2013-02-18 15:22:00,
2013-02-18 09:32:00,43.0,36.0,-100.00,South,185,15.0,19.0,74,0.00,,,-99.99,,2013-02-18 15:32:00,
2013-02-18 09:42:00,44.0,36.0,-100.00,South,180,11.0,16.0,72,0.00,,,-99.99,,2013-02-18 15:42:00,
2013-02-18 09:52:00,45.0,36.0,-100.00,South,190,12.0,20.0,69,0.00,,,-99.99,,2013-02-18 15:52:00,
2013-02-18 10:12:00,46.0,36.0,-100.00,South,190,15.0,22.0,68,0.00,,,-99.99,,2013-02-18 16:12:00,
2013-02-18 10:22:00,46.0,36.0,-100.00,SSW,195,16.0,23.0,67,0.00,,,-99.99,,2013-02-18 16:22:00,
2013-02-18 10:32:00,46.0,36.0,-100.00,South,185,14.0,23.0,67,0.00,,,-99.99,,2013-02-18 16:32:00,
2013-02-18 10:42:00,47.0,36.0,-100.00,South,185,13.0,21.0,67,0.00,,,-99.99,,2013-02-18 16:42:00,
2013-02-18 10:52:00,46.0,36.0,-100.00,South,185,14.0,26.0,67,0.00,,,-99.99,,2013-02-18 16:52:00,
2013-02-18 11:03:00,48.0,37.0,-100.00,SSW,205,17.0,22.0,66,0.00,,,-99.99,,2013-02-18 17:03:00,
2013-02-18 11:12:00,50.0,38.0,-100.00,SSW,210,15.0,21.0,62,0.00,,,-99.99,,2013-02-18 17:12:00,
2013-02-18 11:22:00,50.0,38.0,-100.00,SSW,195,14.0,32.0,62,0.00,,,-99.99,,2013-02-18 17:22:00,
2013-02-18 11:32:00,51.0,38.0,-100.00,SSW,210,20.0,26.0,61,0.00,,,-99.99,,2013-02-18 17:32:00,
2013-02-18 11:42:00,51.0,38.0,-100.00,SW,215,19.0,26.0,61,0.00,,,-99.99,,2013-02-18 17:42:00,
2013-02-18 11:52:00,54.0,40.0,-100.00,SSW,205,18.0,25.0,58,0.00,,,-99.99,,2013-02-18 17:52:00,
2013-02-18 12:02:00,54.0,40.0,-100.00,SSW,205,18.0,25.0,58,0.00,,,-99.99,,2013-02-18 18:02:00,
2013-02-18 12:12:00,55.0,40.0,-100.00,SSW,200,18.0,27.0,56,0.00,,,-99.99,,2013-02-18 18:12:00,
2013-02-18 12:22:00,56.0,40.0,-100.00,SW,215,16.0,27.0,55,0.00,,,-99.99,,2013-02-18 18:22:00,
2013-02-18 12:32:00,57.0,40.0,-100.00,SSW,195,18.0,26.0,54,0.00,,,-99.99,,2013-02-18 18:32:00,
2013-02-18 12:42:00,57.0,41.0,-100.00,SW,230,14.0,27.0,54,0.00,,,-99.99,,2013-02-18 18:42:00,
2013-02-18 12:52:00,54.0,40.0,-100.00,SSW,210,14.0,24.0,58,0.00,,,-99.99,,2013-02-18 18:52:00,
2013-02-18 13:02:00,54.0,40.0,-100.00,SSW,210,14.0,24.0,58,0.00,,,-99.99,,2013-02-18 19:02:00,
2013-02-18 13:12:00,53.0,40.0,-100.00,SW,220,12.0,21.0,59,0.00,,,-99.99,,2013-02-18 19:12:00,
2013-02-18 13:22:00,53.0,40.0,-100.00,SSW,210,11.0,17.0,61,0.00,,,-99.99,,2013-02-18 19:22:00,
2013-02-18 13:33:00,52.0,40.0,-100.00,SSW,210,9.0,16.0,63,0.01,,,-99.99,,2013-02-18 19:33:00,
2013-02-18 13:42:00,51.0,41.0,-100.00,SW,220,11.0,15.0,68,0.01,,,-99.99,,2013-02-18 19:42:00,
2013-02-18 13:52:00,49.0,42.0,-100.00,SW,235,9.0,16.0,76,0.01,,,-99.99,,2013-02-18 19:52:00,
2013-02-18 14:02:00,49.0,43.0,-100.00,SW,225,12.0,18.0,81,0.01,,,-99.99,,2013-02-18 20:02:00,
2013-02-18 14:12:00,48.0,44.0,-100.00,SW,235,10.0,16.0,87,0.01,,,-99.99,,2013-02-18 20:12:00,
2013-02-18 14:22:00,48.0,45.0,-100.00,SSW,205,9.0,15.0,89,0.00,,,-99.99,,2013-02-18 20:22:00,
2013-02-18 14:33:00,47.0,45.0,-100.00,SW,215,6.0,11.0,91,0.01,,,-99.99,,2013-02-18 20:33:00,
2013-02-18 14:42:00,47.0,45.0,-100.00,SW,230,7.0,11.0,93,0.04,,,-99.99,,2013-02-18 20:42:00,
2013-02-18 14:52:00,46.0,45.0,-100.00,West,270,10.0,12.0,95,0.01,,,-99.99,,2013-02-18 20:52:00,
2013-02-18 15:03:00,44.0,43.0,-100.00,WNW,295,7.0,10.0,96,0.00,,,-99.99,,2013-02-18 21:03:00,
2013-02-18 15:12:00,43.0,42.0,-100.00,WNW,295,7.0,11.0,96,0.00,,,-99.99,,2013-02-18 21:12:00,
2013-02-18 15:22:00,42.0,41.0,-100.00,West,275,7.0,11.0,96,0.00,,,-99.99,,2013-02-18 21:22:00,
2013-02-18 15:32:00,41.0,41.0,-100.00,West,275,8.0,11.0,99,0.14,,,-99.99,,2013-02-18 21:32:00,
2013-02-18 15:42:00,41.0,41.0,-100.00,West,275,8.0,11.0,99,0.14,,,-99.99,,2013-02-18 21:42:00,
2013-02-18 15:52:00,40.0,40.0,-100.00,WNW,285,8.0,11.0,99,0.04,,,-99.99,,2013-02-18 21:52:00,
2013-02-18 16:02:00,40.0,40.0,-100.00,WNW,290,12.0,17.0,99,0.06,,,-99.99,,2013-02-18 22:02:00,
2013-02-18 16:12:00,39.0,38.0,-100.00,NW,310,13.0,24.0,99,0.21,,,-99.99,,2013-02-18 22:12:00,
2013-02-18 16:22:00,38.0,38.0,-100.00,WNW,295,12.0,18.0,99,0.20,,,-99.99,,2013-02-18 22:22:00,
2013-02-18 16:33:00,37.0,37.0,-100.00,WNW,285,16.0,23.0,99,0.20,,,-99.99,,2013-02-18 22:33:00,
2013-02-18 16:43:00,35.0,35.0,-100.00,WNW,295,15.0,24.0,99,0.20,,,-99.99,,2013-02-18 22:43:00,
2013-02-18 16:52:00,35.0,35.0,-100.00,WNW,300,13.0,21.0,99,0.06,,,-99.99,,2013-02-18 22:52:00,
2013-02-18 17:02:00,35.0,35.0,-100.00,NW,305,7.0,17.0,99,0.10,,,-99.99,,2013-02-18 23:02:00,
2013-02-18 17:12:00,34.0,34.0,-100.00,NW,310,9.0,15.0,99,0.01,,,-99.99,,2013-02-18 23:12:00,
2013-02-18 17:22:00,33.0,33.0,-100.00,WNW,300,10.0,15.0,99,0.04,,,-99.99,,2013-02-18 23:22:00,
2013-02-18 17:33:00,33.0,33.0,-100.00,WNW,295,8.0,16.0,99,0.04,,,-99.99,,2013-02-18 23:33:00,
2013-02-18 17:42:00,33.0,33.0,-100.00,NW,315,11.0,16.0,99,0.03,,,-99.99,,2013-02-18 23:42:00,
2013-02-18 17:52:00,32.0,32.0,-100.00,WNW,285,14.0,21.0,99,0.18,,,-99.99,,2013-02-18 23:52:00,
2013-02-18 18:02:00,32.0,32.0,-100.00,WNW,285,14.0,21.0,99,0.18,,,-99.99,,2013-02-19 00:02:00,
2013-02-18 18:12:00,32.0,32.0,-100.00,WNW,295,16.0,22.0,99,0.33,,,-99.99,,2013-02-19 00:12:00,
2013-02-18 18:22:00,31.0,31.0,-100.00,NW,305,19.0,25.0,99,0.10,,,-99.99,,2013-02-19 00:22:00,
2013-02-18 18:34:00,31.0,31.0,-100.00,WNW,295,17.0,27.0,99,0.06,,,-99.99,,2013-02-19 00:34:00,
2013-02-18 18:42:00,31.0,31.0,-100.00,NW,305,14.0,27.0,99,0.07,,,-99.99,,2013-02-19 00:42:00,
2013-02-18 19:03:00,30.0,30.0,-100.00,WNW,300,16.0,29.0,99,0.01,,,-99.99,,2013-02-19 01:03:00,
2013-02-18 19:13:00,29.0,29.0,-100.00,WNW,290,22.0,29.0,99,0.01,,,-99.99,,2013-02-19 01:13:00,
2013-02-18 19:23:00,29.0,29.0,-100.00,WNW,295,24.0,30.0,99,0.00,,,-99.99,,2013-02-19 01:23:00,
2013-02-18 19:34:00,28.0,28.0,-100.00,WNW,295,22.0,34.0,99,0.00,,,-99.99,,2013-02-19 01:34:00,
2013-02-18 19:43:00,28.0,28.0,-100.00,NW,305,22.0,34.0,99,0.00,,,-99.99,,2013-02-19 01:43:00,
2013-02-18 19:53:00,28.0,28.0,-100.00,WNW,300,24.0,32.0,99,0.00,,,-99.99,,2013-02-19 01:53:00,
2013-02-18 20:03:00,28.0,28.0,-100.00,WNW,290,20.0,34.0,99,0.00,,,-99.99,,2013-02-19 02:03:00,
2013-02-18 20:13:00,27.0,27.0,-100.00,WNW,295,27.0,37.0,98,0.00,,,-99.99,,2013-02-19 02:13:00,
2013-02-18 20:22:00,27.0,26.0,-100.00,WNW,290,27.0,37.0,97,0.00,,,-99.99,,2013-02-19 02:22:00,
2013-02-18 20:34:00,26.0,25.0,-100.00,WNW,290,27.0,39.0,96,0.00,,,-99.99,,2013-02-19 02:34:00,
2013-02-18 20:42:00,25.0,24.0,-100.00,WNW,285,29.0,37.0,95,0.00,,,-99.99,,2013-02-19 02:42:00,
2013-02-18 20:53:00,25.0,23.0,-100.00,WNW,285,29.0,37.0,93,0.00,,,-99.99,,2013-02-19 02:53:00,
2013-02-18 21:06:00,24.0,23.0,-100.00,WNW,285,30.0,39.0,93,0.00,,,-99.99,,2013-02-19 03:06:00,
2013-02-18 21:14:00,24.0,22.0,-100.00,WNW,290,29.0,39.0,92,0.00,,,-99.99,,2013-02-19 03:14:00,
2013-02-18 21:23:00,24.0,22.0,-100.00,WNW,290,27.0,37.0,91,0.00,,,-99.99,,2013-02-19 03:23:00,
2013-02-18 21:33:00,24.0,22.0,-100.00,NW,310,21.0,37.0,91,0.00,,,-99.99,,2013-02-19 03:33:00,
2013-02-18 21:44:00,23.0,21.0,-100.00,WNW,290,26.0,35.0,91,0.00,,,-99.99,,2013-02-19 03:44:00,
2013-02-18 21:52:00,23.0,21.0,-100.00,WNW,290,26.0,32.0,90,0.00,,,-99.99,,2013-02-19 03:52:00,
2013-02-18 22:02:00,23.0,20.0,-100.00,WNW,285,24.0,34.0,90,0.00,,,-99.99,,2013-02-19 04:02:00,
2013-02-18 22:13:00,22.0,20.0,-100.00,WNW,300,22.0,31.0,90,0.00,,,-99.99,,2013-02-19 04:13:00,
2013-02-18 22:22:00,22.0,20.0,-100.00,West,280,21.0,31.0,89,0.00,,,-99.99,,2013-02-19 04:22:00,
2013-02-18 22:33:00,21.0,18.0,-100.00,West,275,30.0,37.0,89,0.00,,,-99.99,,2013-02-19 04:33:00,
2013-02-18 22:43:00,20.0,18.0,-100.00,WNW,285,27.0,37.0,89,0.00,,,-99.99,,2013-02-19 04:43:00,
2013-02-18 22:52:00,20.0,17.0,-100.00,WNW,290,28.0,35.0,88,0.00,,,-99.99,,2013-02-19 04:52:00,
2013-02-18 23:02:00,20.0,17.0,-100.00,West,280,24.0,34.0,88,0.00,,,-99.99,,2013-02-19 05:02:00,
2013-02-18 23:12:00,19.0,16.0,-100.00,WNW,285,27.0,34.0,88,0.00,,,-99.99,,2013-02-19 05:12:00,
2013-02-18 23:22:00,18.0,15.0,-100.00,West,275,24.0,35.0,86,0.00,,,-99.99,,2013-02-19 05:22:00,
2013-02-18 23:32:00,18.0,15.0,-100.00,West,280,26.0,32.0,86,0.00,,,-99.99,,2013-02-19 05:32:00,
2013-02-18 23:43:00,18.0,15.0,-100.00,WNW,285,24.0,32.0,87,0.00,,,-99.99,,2013-02-19 05:43:00,
2013-02-18 23:52:00,17.0,14.0,-100.00,West,280,27.0,34.0,87,0.00,,,-99.99,,2013-02-19 05:52:00,